Helicity
32 33 30 33 35 36 34 36 35 44 43 45 46 36 39 60 64 67 78 176 137 89 89 97 85 92 104 136 140 145 171 86 62 86 93 103 145 172 177 215 204 187 255 215 89
37 29 30 32 34 39 38 43 38 46 50 54 52 44 53 69 62 69 176 141 112 95 85 82 92 96 148 121 145 150 147 76 126 109 76 102 122 79 82 133 152 139 189 130 109
28 26 29 31 33 33 41 44 49 51 60 62 63 57 64 54 88 147 156 135 105 84 85 97 103 87 113 125 116 111 89 112 102 188 326 254 120 190 75 62 76 35 87 115 98
24 27 28 27 24 26 34 42 49 62 78 75 71 61 65 64 180 111 75 62 55 55 65 87 100 112 131 118 70 119 96 84 181 175 167 130 114 106 86 154 187 135 63 89 72
22 21 18 15 14 18 25 34 44 59 84 81 72 65 69 99 164 112 94 70 46 49 48 65 66 57 97 79 82 75 100 82 135 123 121 135 88 72 111 122 113 66 20 41 67
12 10 11 13 16 19 22 25 32 49 70 78 78 67 66 128 108 87 79 59 50 39 50 46 96 64 134 109 110 165 82 86 58 61 94 104 79 105 88 161 92 54 25 35 52
3 4 11 14 17 16 13 13 17 36 55 69 70 58 97 167 93 72 58 53 54 50 62 59 69 76 101 102 112 130 105 79 53 50 101 118 82 62 118 74 78 68 61 49 54
-2 6 13 19 20 11 23 19 28 46 58 68 60 64 153 75 58 46 44 41 45 55 72 73 68 94 126 129 82 88 95 82 63 73 104 121 78 198 159 95 72 67 68 77 62
-1 9 19 23 8 21 30 43 75 76 79 70 62 65 139 50 59 52 53 59 48 52 61 69 87 106 104 98 75 71 82 25 93 60 109 90 94 158 131 92 72 111 84 67 68
-5 17 26 28 16 32 32 44 86 84 56 38 48 68 80 96 49 43 38 33 41 49 58 59 72 73 75 86 95 69 40 107 102 58 105 78 92 79 69 49 92 108 101 66 51
-4 28 29 25 45 40 26 46 56 92 91 139 150 148 143 73 26 57 39 35 37 38 47 50 70 59 51 63 110 110 154 131 149 139 110 69 87 127 108 29 31 75 137 80 38
6 39 28 33 48 36 30 116 116 104 139 128 132 118 85 53 56 72 49 48 43 54 80 75 71 150 121 109 82 71 57 52 97 83 104 113 108 105 216 184 153 184 143 144 132
13 50 41 27 48 45 94 84 46 56 104 162 95 86 45 21 60 75 91 58 70 65 67 89 137 92 90 69 73 63 77 93 121 66 63 88 65 68 106 161 174 175 201 197 171
20 52 50 23 33 83 111 49 55 57 144 189 73 40 26 21 66 61 73 52 51 87 85 113 79 81 82 105 113 77 112 116 109 89 85 102 109 150 89 86 239 236 245 221 218
32 58 54 52 83 102 77 53 58 64 211 106 75 19 23 79 83 60 80 58 110 99 82 114 114 127 101 139 148 169 118 125 120 113 142 72 144 143 86 196 277 256 232 215 221
42 64 29 66 64 91 50 58 68 129 210 135 105 112 94 102 112 118 126 135 101 94 165 141 120 134 138 127 146 119 116 119 112 132 117 76 100 174 188 170 220 241 203 200 197
42 76 70 35 72 45 49 67 117 174 113 138 103 66 80 135 161 170 172 187 185 140 97 103 134 107 137 105 107 132 115 126 95 145 167 195 159 212 154 150 174 207 219 204 171
42 53 67 59 56 42 49 58 206 161 117 80 58 58 127 136 125 144 99 124 151 169 141 121 52 150 175 182 185 132 176 190 203 152 158 182 184 225 152 140 122 140 145 160 150
36 59 51 30 50 42 41 198 165 120 73 38 34 54 85 77 62 46 77 103 121 159 156 124 100 111 136 139 155 161 159 169 183 154 210 145 176 125 150 190 198 188 179 187 176
54 55 51 -19 17 37 116 134 105 63 33 29 52 74 59 77 77 80 79 86 88 119 125 107 105 94 106 99 103 138 145 143 134 162 125 171 129 229 223 207 196 199 201 197 185
29 21 20 -19 26 71 92 88 83 54 39 44 56 49 55 69 44 66 86 69 90 63 57 63 89 76 66 152 171 134 120 149 195 207 220 153 121 182 204 190 200 201 184 187 174
17 53 23 13 90 55 72 45 47 51 51 63 55 51 52 56 55 56 71 67 47 33 66 65 95 105 138 68 76 114 159 155 170 135 169 211 155 131 117 131 169 189 190 165 135
52 37 30 11 103 115 96 83 70 68 59 53 60 48 34 43 35 45 39 25 44 40 46 36 45 60 60 49 35 103 146 152 143 140 180 223 178 103 131 148 159 167 179 175 123
18 75 95 70 64 106 105 100 85 74 69 49 47 30 23 33 28 28 22 9 11 31 12 -1 39 53 139 147 124 79 113 121 128 132 179 193 121 124 147 152 148 150 140 104 95
15 96 61 114 118 117 91 84 82 87 64 48 51 46 36 26 19 29 15 -9 6 38 24 19 28 31 41 54 66 53 59 62 73 88 110 115 116 116 107 72 70 81 96 70 33
8 47 72 108 100 88 85 94 87 78 53 56 51 32 21 31 18 12 6 14 14 -4 23 13 17 18 30 20 33 48 46 39 36 64 67 82 72 88 80 61 76 78 76 57 35
65 76 62 116 108 84 110 97 89 59 74 50 38 34 34 26 -6 -14 -21 -8 -12 -1 14 17 11 0 39 15 18 35 47 39 30 33 37 43 104 63 106 114 105 83 65 69 38
Wind_Speed
64 64 62 64 67 66 65 63 59 52 44 43 43 41 40 40 40 32 32 33 31 33 36 40 37 35 34 43 45 45 65 82 83 81 79 54 56 54 56 51 49 46 50 42 21
69 67 67 67 68 68 66 62 57 49 44 44 44 40 39 39 38 33 29 30 33 33 36 37 38 33 41 42 45 50 69 78 70 70 68 55 53 57 64 62 64 56 51 37 27
73 71 69 70 72 65 56 52 50 49 47 46 42 37 36 36 45 34 25 32 35 32 36 37 39 35 48 46 49 55 75 59 63 60 53 54 52 50 64 74 69 69 55 43 40
76 75 73 74 75 67 61 54 51 49 44 44 41 36 33 31 53 29 29 33 34 33 28 30 33 38 48 51 54 67 63 69 59 53 55 60 54 56 62 63 56 55 43 45 46
79 77 76 75 69 64 58 53 50 45 42 40 38 30 31 36 38 28 35 36 33 31 30 31 34 41 49 51 57 63 64 54 60 56 53 53 58 60 61 59 56 51 45 47 49
78 76 73 69 65 62 58 55 48 42 39 37 33 27 32 42 32 32 38 34 34 32 35 34 38 41 53 52 53 52 61 61 54 54 54 57 59 55 55 50 57 54 53 50 50
76 71 69 67 65 62 59 54 47 41 38 34 29 26 32 36 31 33 38 34 34 36 37 36 39 36 40 47 49 52 59 55 60 55 56 51 68 63 50 50 58 58 55 52 51
76 72 70 69 67 63 61 55 45 38 34 33 27 28 37 30 31 32 35 33 34 33 36 33 33 37 42 39 44 51 58 68 49 48 50 47 72 44 45 54 64 59 56 55 53
76 73 70 69 67 63 61 54 48 40 36 32 32 31 36 29 30 34 37 35 30 30 31 29 31 38 36 46 52 51 65 60 54 48 51 50 57 44 42 51 59 60 59 57 55
76 72 71 70 65 64 55 48 45 41 36 33 32 34 32 35 34 35 35 31 31 27 29 32 37 42 44 45 56 61 58 62 61 49 51 54 61 43 39 44 58 61 59 59 59
76 74 73 68 59 61 51 46 47 47 46 45 42 36 38 38 32 37 38 33 30 33 38 33 42 47 51 48 53 54 53 56 49 50 55 60 62 54 45 48 55 55 62 61 60
73 75 75 67 52 62 54 54 50 43 49 41 36 35 35 41 35 41 42 36 33 40 36 40 47 42 42 44 48 52 60 62 53 49 56 60 61 52 45 48 53 58 60 60 60
72 71 75 66 48 60 60 54 43 37 44 41 36 40 36 43 37 42 44 38 40 39 40 48 40 39 41 42 48 51 58 58 58 49 54 61 72 52 40 36 40 48 54 57 60
73 62 71 64 53 60 58 52 41 35 42 47 37 37 41 38 34 42 44 38 36 40 40 41 40 42 42 43 47 55 46 51 56 58 66 48 62 46 43 39 45 53 58 62 60
72 56 65 66 59 62 56 47 38 35 54 42 38 36 39 38 44 42 44 38 42 42 41 42 43 43 44 48 48 51 45 47 50 56 60 57 62 50 42 52 59 57 59 62 62
69 54 64 60 55 56 49 41 37 45 47 42 37 50 47 44 41 42 44 41 37 41 38 40 38 43 46 45 44 39 44 46 48 52 71 63 57 58 56 58 61 59 58 59 61
62 52 67 63 65 55 45 42 51 54 50 47 45 54 42 52 45 46 42 43 44 44 42 37 44 40 43 45 39 43 46 57 62 63 71 49 57 55 48 48 50 55 56 57 57
58 52 62 66 57 49 44 50 62 52 50 48 53 49 45 53 43 47 40 44 47 46 48 49 48 42 44 41 45 43 47 56 61 57 55 47 60 53 45 42 43 46 48 51 52
53 51 77 72 58 47 52 68 60 56 51 53 53 47 44 49 48 45 43 43 42 43 41 41 33 34 35 35 35 35 43 42 57 53 59 46 46 41 42 46 47 48 48 50 51
54 53 82 70 55 51 64 61 53 52 49 47 49 48 53 54 48 47 43 40 43 44 43 39 43 36 34 37 35 38 36 43 43 58 64 56 54 57 53 52 51 52 51 51 50
57 59 77 65 52 66 70 61 53 53 49 50 48 46 48 49 47 43 42 37 48 50 46 41 40 36 36 41 44 42 43 43 46 48 56 57 53 46 50 50 52 53 52 52 50
63 68 71 61 74 66 68 58 49 54 49 47 43 44 45 46 43 37 38 42 51 46 41 39 41 42 41 38 37 39 45 45 52 51 52 58 54 39 40 43 47 51 52 50 47
65 65 61 66 74 71 60 57 53 55 56 49 49 46 41 44 38 39 38 39 47 42 39 40 35 38 37 36 32 34 38 41 45 47 57 58 50 35 39 44 46 49 50 50 43
64 70 67 72 67 63 59 60 53 50 53 45 48 41 42 42 40 37 39 39 43 45 39 35 37 42 44 40 36 33 38 36 36 43 44 45 38 39 44 49 51 53 52 49 47
71 67 62 72 70 65 57 55 56 53 47 51 43 47 45 43 38 39 43 42 36 46 37 34 36 39 35 36 33 32 35 35 37 39 44 40 38 38 42 48 53 57 59 58 54
74 69 60 59 57 57 56 55 55 50 49 48 47 43 41 41 37 35 45 43 40 43 38 37 34 32 35 32 31 34 34 33 34 38 40 43 44 35 42 47 57 62 66 64 60
70 54 54 57 56 55 54 51 50 47 44 42 42 39 40 39 37 32 35 35 38 41 40 37 35 36 36 36 43 46 33 34 36 36 38 44 39 38 48 56 62 70 66 66 62
Wind_Direction
0 358 358 354 347 344 341 341 342 346 349 347 344 341 339 337 333 330 320 323 319 311 305 298 294 287 281 273 270 270 263 262 264 265 265 278 263 262 269 265 264 264 267 273 243
355 354 353 350 346 341 341 343 345 349 348 345 342 341 340 339 332 323 331 323 316 311 301 292 286 280 277 271 270 261 263 264 272 273 270 271 270 265 261 259 261 264 267 264 253
350 351 351 347 341 345 348 348 348 347 345 344 344 344 343 342 328 329 332 320 314 309 300 294 287 277 273 272 264 268 261 272 272 274 276 275 274 273 263 257 261 262 259 256 255
348 349 348 344 339 344 345 346 346 346 347 347 346 346 345 342 321 347 339 325 316 308 302 294 283 275 274 268 268 267 269 266 275 277 274 272 279 272 266 264 268 267 257 253 253
346 349 348 346 349 350 351 350 349 349 349 350 351 354 350 332 328 343 330 322 314 305 295 289 281 275 275 275 271 265 267 273 271 274 276 277 274 272 270 266 267 267 261 255 254
352 353 354 356 358 357 356 355 356 355 356 355 358 1 345 327 346 338 327 321 310 302 294 287 288 280 282 276 270 279 268 268 273 273 274 273 275 275 273 269 264 261 259 257 254
358 360 0 0 359 359 359 358 358 359 359 1 4 4 344 339 347 338 329 321 313 302 294 291 289 283 285 281 279 277 272 273 270 271 273 277 271 271 276 269 262 260 259 257 255
360 1 1 1 359 359 359 358 359 1 6 8 14 5 346 356 346 340 332 325 316 309 301 301 295 288 285 292 285 277 272 266 272 269 275 273 271 276 280 269 260 259 258 257 255
360 1 2 2 0 1 2 6 11 18 16 19 10 1 348 1 349 339 331 321 321 315 308 306 295 287 287 280 277 274 270 268 269 273 275 269 276 281 286 274 263 260 259 257 255
2 4 4 2 3 3 7 12 17 19 18 15 9 357 360 349 346 338 334 329 321 319 310 298 289 282 279 273 273 272 271 270 270 275 272 271 270 283 291 279 264 261 260 258 256
3 5 4 4 8 8 10 9 3 3 5 359 356 355 353 348 347 335 329 323 319 306 295 296 284 280 278 276 279 279 277 275 278 281 277 272 272 277 284 279 268 265 260 259 258
6 6 5 7 15 11 11 7 5 4 358 9 7 2 354 346 339 334 325 316 309 298 299 293 283 290 288 285 282 279 275 275 279 282 277 275 274 279 285 283 273 267 264 264 260
4 7 7 10 17 12 13 9 13 17 0 10 16 9 359 345 342 330 324 317 307 300 295 286 293 298 290 287 282 280 276 278 275 284 280 277 273 269 283 291 286 276 273 270 265
5 9 8 11 12 9 8 11 16 20 357 5 17 13 360 351 343 337 329 321 313 302 300 295 299 292 290 287 288 279 289 283 279 277 273 278 271 269 274 277 290 284 276 271 271
6 11 11 14 9 8 7 13 21 20 353 12 15 15 5 359 337 337 332 323 310 305 299 295 296 294 289 289 290 286 291 286 283 277 276 270 271 271 275 276 284 287 284 277 276
9 17 13 13 15 13 14 21 24 9 3 8 15 356 354 355 349 337 329 328 322 307 311 302 308 300 295 296 293 293 289 289 285 281 270 268 265 270 274 280 283 289 289 285 280
14 24 17 16 9 11 21 23 11 8 8 3 359 349 350 341 343 340 339 332 318 306 299 303 304 304 302 293 295 289 282 278 275 270 270 273 267 272 284 290 292 291 293 292 289
21 26 19 17 17 21 25 16 9 9 5 1 354 350 350 345 346 341 333 324 327 315 302 298 296 304 304 296 291 285 280 275 274 272 272 274 268 272 284 298 304 303 302 301 297
24 25 15 16 22 27 20 14 12 9 7 360 358 356 352 351 341 340 339 328 328 331 308 308 305 310 308 305 301 295 283 288 279 281 276 273 278 285 289 292 298 302 306 306 305
22 21 14 15 24 26 23 20 19 18 13 12 5 3 350 348 348 344 338 336 324 322 313 310 300 304 304 303 304 297 299 286 283 275 272 275 272 273 285 288 294 297 302 306 309
22 17 14 20 29 27 20 22 24 23 23 17 11 5 1 357 352 348 340 337 321 312 308 304 301 303 303 296 292 293 291 290 288 285 278 278 278 291 289 294 293 297 302 303 306
20 16 17 22 20 25 22 24 28 23 26 23 21 15 10 6 2 0 349 338 324 316 314 311 299 295 299 304 303 298 293 291 282 284 282 281 283 304 305 306 302 299 303 305 308
18 17 23 26 17 21 29 28 29 25 23 24 23 24 23 15 13 7 357 344 333 324 319 312 307 299 301 302 309 303 306 299 292 291 284 283 287 308 308 307 309 306 308 305 306
18 14 18 25 27 25 25 24 26 30 27 29 27 31 27 22 22 16 0 342 336 331 325 320 310 297 297 299 305 303 308 313 309 294 296 296 298 304 305 304 306 306 306 304 305
20 18 20 14 19 23 26 26 24 24 29 27 29 29 27 25 26 20 359 341 346 334 338 330 317 309 312 313 311 309 308 315 310 310 299 308 306 311 315 313 310 305 302 297 295
18 16 18 20 22 22 24 25 24 26 27 26 27 30 30 28 28 24 3 353 340 333 336 331 322 323 314 320 323 314 317 321 319 316 311 310 308 323 324 321 314 307 302 295 289
19 22 20 19 19 20 23 26 26 28 31 32 31 33 31 27 21 21 4 7 356 344 339 338 332 321 313 312 306 300 310 318 320 322 318 312 321 329 324 322 317 308 305 297 290